period_start,C,m1,H,J0,J1,J2,J3,J4,J5,JA,JB,JC,JD,JJ,JK,JN,#
2015-09-03 00:00:22,-0.01,0.03,0.00,22.90,28.00,30.73,14.71,48.32,1024.13,2035.10,3440.02,3250.00,3537.96,600.04,600.64,9.85,0000 0000 0000 0000 000000
2015-09-03 00:05:23,0.01,0.03,0.00,23.10,28.00,30.71,14.60,48.07,1024.32,2035.11,3440.01,3250.00,3537.82,599.62,600.21,9.90,0000 0000 0000 0000 000000
2015-09-03 00:10:25,-0.00,0.03,0.00,23.14,28.00,30.73,14.58,48.28,1024.35,2035.13,3439.99,3249.99,3537.35,599.73,600.08,9.95,0000 0000 0000 0000 000000
2015-09-03 00:15:26,0.00,0.03,0.00,22.99,28.00,30.73,14.59,48.27,1024.34,2035.11,3439.96,3249.99,3537.09,599.81,600.39,10.00,0000 0000 0000 0000 000000
2015-09-03 00:20:27,-0.00,0.03,0.00,23.11,28.02,30.71,14.56,48.29,1024.37,2035.04,3439.92,3249.98,3537.02,599.45,599.88,10.05,0000 0000 0000 0000 000000
2015-09-03 00:25:29,0.01,0.03,0.00,23.14,28.02,30.75,14.63,48.25,1024.39,2035.03,3439.50,3249.97,3537.00,600.01,600.29,10.10,0000 0000 0000 0000 000000
2015-09-03 00:30:30,-0.00,0.03,0.00,23.10,28.02,30.71,14.65,48.18,1024.40,2035.02,3439.16,3249.95,3537.00,599.96,600.49,10.15,0000 0000 0000 0000 000000
2015-09-03 00:35:31,0.00,0.04,0.00,23.24,28.02,30.72,14.70,48.25,1024.42,2035.00,3439.04,3249.86,3536.98,600.13,600.22,10.20,0000 0000 0000 0000 000000
2015-09-03 00:40:32,-0.00,0.04,0.00,23.15,28.03,30.74,14.51,48.07,1024.43,2035.01,3439.01,3249.81,3536.96,599.57,599.82,10.25,0000 0000 0000 0000 000000
2015-09-03 00:45:34,0.01,0.04,0.00,23.22,28.05,30.72,14.61,48.27,1024.43,2035.01,3439.00,3249.67,3536.72,599.75,599.88,10.30,0000 0000 0000 0000 000000
2015-09-03 00:50:35,0.01,0.04,0.00,23.25,28.05,30.72,14.75,48.32,1024.43,2035.00,3438.96,3249.19,3536.22,600.42,600.52,10.35,0000 0000 0000 0000 000000
2015-09-03 00:55:36,0.01,0.04,0.00,23.31,28.05,30.71,14.53,48.19,1024.43,2035.00,3438.75,3249.03,3536.03,599.88,599.93,10.40,0000 0000 0000 0000 000000
2015-09-03 01:00:37,0.00,0.04,0.00,23.38,28.05,30.72,14.59,48.10,1024.43,2035.00,3438.27,3249.01,3536.00,600.08,599.94,10.45,0000 0000 0000 0000 000000
2015-09-03 01:05:39,0.02,0.04,0.00,23.36,28.06,30.70,14.59,48.15,1024.43,2035.00,3437.68,3248.92,3535.64,599.99,599.86,10.50,0000 0000 0000 0000 000000
2015-09-03 01:10:40,0.02,0.04,0.00,23.44,28.07,30.70,14.67,48.39,1024.43,2035.00,3436.98,3248.25,3535.02,600.10,599.82,10.56,0000 0000 0000 0000 000000
2015-09-03 01:15:41,0.05,0.04,0.00,23.37,28.07,30.74,14.63,48.22,1024.43,2035.00,3436.00,3247.61,3534.21,599.89,599.80,10.61,0000 0000 0000 0000 000000
2015-09-03 01:20:42,0.02,0.04,0.00,23.31,28.07,30.71,14.71,48.34,1024.43,2035.00,3435.11,3247.03,3533.92,600.14,600.17,10.66,0000 0000 0000 0000 000000
2015-09-03 01:25:44,0.01,0.04,0.00,23.35,28.07,30.72,14.58,48.17,1024.43,2035.00,3435.00,3247.00,3533.33,599.85,599.80,10.71,0000 0000 0000 0000 000000
2015-09-03 01:30:45,0.02,0.04,0.00,23.19,28.07,30.74,14.57,48.12,1024.43,2035.00,3434.59,3246.80,3533.03,599.67,599.93,10.76,0000 0000 0000 0000 000000
2015-09-03 01:35:47,0.03,0.05,0.00,23.17,28.07,30.72,14.64,48.27,1024.43,2035.00,3433.93,3246.04,3532.36,599.99,600.30,10.81,0000 0000 0000 0000 000000
2015-09-03 01:40:48,0.02,0.05,0.00,23.32,28.07,30.74,14.65,48.39,1024.43,2035.00,3433.17,3245.89,3532.00,600.02,599.88,10.86,0000 0000 0000 0000 000000
2015-09-03 01:45:49,0.00,0.05,0.00,23.36,28.07,30.73,14.71,48.24,1024.43,2035.00,3433.00,3245.63,3531.99,599.84,599.69,10.91,0000 0000 0000 0000 000000
2015-09-03 01:50:50,0.01,0.05,0.00,23.36,28.09,30.74,14.59,48.36,1024.43,2035.00,3433.00,3245.33,3531.97,600.03,599.92,10.96,0000 0000 0000 0000 000000
2015-09-03 01:55:52,0.01,0.05,0.00,23.43,28.10,30.73,14.65,48.31,1024.43,2035.00,3432.80,3245.05,3531.46,600.36,600.11,11.01,0000 0000 0000 0000 000000
2015-09-03 02:00:53,0.01,0.05,0.00,23.47,28.10,30.75,14.62,48.17,1024.43,2034.99,3432.15,3245.00,3531.02,599.92,599.58,11.06,0000 0000 0000 0000 000000
2015-09-03 02:05:55,0.00,0.05,0.00,23.48,28.12,30.78,14.67,48.26,1024.43,2034.98,3432.01,3245.00,3531.00,600.04,599.71,11.11,0000 0000 0000 0000 000000
2015-09-03 02:10:56,0.00,0.05,0.00,23.41,28.12,30.75,14.61,48.34,1024.43,2034.97,3431.99,3244.98,3530.99,599.95,599.82,11.16,0000 0000 0000 0000 000000
2015-09-03 02:15:57,0.00,0.05,0.00,23.47,28.12,30.76,14.55,48.28,1024.43,2034.98,3431.99,3244.98,3530.99,599.65,599.33,11.21,0000 0000 0000 0000 000000
2015-09-03 02:20:58,0.00,0.05,0.00,23.43,28.13,30.77,14.60,48.32,1024.43,2034.97,3431.99,3244.95,3530.95,599.89,599.57,11.26,0000 0000 0000 0000 000000
2015-09-03 02:25:59,0.00,0.05,0.00,23.48,28.15,30.77,14.58,48.23,1024.43,2034.97,3431.95,3244.80,3530.85,600.06,599.67,11.31,0000 0000 0000 0000 000000
2015-09-03 02:31:01,0.02,0.05,0.00,23.53,28.15,30.79,14.62,48.02,1024.43,2034.93,3431.54,3244.38,3530.36,599.96,599.60,11.36,0000 0000 0000 0000 000000
2015-09-03 02:36:02,0.02,0.05,0.00,23.50,28.15,30.78,14.68,48.44,1024.43,2034.92,3431.05,3244.08,3530.06,600.06,599.74,11.41,0000 0000 0000 0000 000000
2015-09-03 02:41:03,0.00,0.05,0.00,23.56,28.17,30.77,14.69,48.19,1024.42,2034.94,3431.01,3244.04,3530.01,600.34,599.92,11.46,0000 0000 0000 0000 000000
2015-09-03 02:46:05,-0.02,0.05,0.00,23.57,28.17,30.79,14.62,48.32,1024.43,2034.81,3431.00,3244.00,3530.00,600.19,599.71,11.51,0000 0000 0000 0000 000000
2015-09-03 02:51:06,0.01,0.05,0.00,23.62,28.17,30.78,14.48,48.10,1024.38,2034.63,3430.67,3244.00,3529.97,599.60,598.95,11.56,0000 0000 0000 0000 000000
2015-09-03 02:56:07,-0.00,0.05,0.00,23.67,28.17,30.81,14.52,48.13,1024.36,2034.57,3430.09,3243.96,3529.57,600.26,599.49,11.61,0000 0000 0000 0000 000000
2015-09-03 03:01:08,-0.00,0.05,0.00,23.67,28.18,30.82,14.64,48.31,1024.39,2034.41,3430.01,3243.90,3529.14,600.12,599.42,11.66,0000 0000 0000 0000 000000
2015-09-03 03:06:10,-0.00,0.05,0.00,23.68,28.20,30.80,14.58,48.14,1024.40,2034.31,3430.00,3243.64,3529.01,600.19,599.30,11.71,0000 0000 0000 0000 000000
2015-09-03 03:11:11,-0.00,0.05,0.00,23.70,28.20,30.83,14.71,48.35,1024.39,2034.12,3429.98,3243.12,3529.00,600.32,599.54,11.76,0000 0000 0000 0000 000000
2015-09-03 03:16:12,-0.00,0.05,0.00,23.73,28.20,30.84,14.63,48.32,1024.41,2034.06,3429.95,3243.05,3529.00,599.88,599.03,11.81,0000 0000 0000 0000 000000
2015-09-03 03:21:13,0.02,0.05,0.00,23.76,28.20,30.82,14.66,48.29,1024.39,2034.13,3429.35,3243.01,3528.98,600.10,599.19,11.86,0000 0000 0000 0000 000000
2015-09-03 03:26:14,0.02,0.05,0.00,23.77,28.22,30.81,14.55,48.33,1024.34,2034.29,3428.98,3243.00,3528.73,599.94,599.06,11.91,0000 0000 0000 0000 000000
2015-09-03 03:31:15,0.01,0.05,0.00,23.75,28.22,30.82,14.62,48.02,1024.38,2034.16,3428.34,3242.84,3528.04,600.08,599.13,11.96,0000 0000 0000 0000 000000
2015-09-03 03:36:17,0.02,0.06,0.00,23.76,28.22,30.84,14.55,48.13,1024.34,2034.12,3428.02,3242.25,3527.99,599.81,598.84,12.01,0000 0000 0000 0000 000000
2015-09-03 03:41:18,0.00,0.06,0.00,23.73,28.22,30.84,14.72,48.16,1024.34,2034.09,3427.99,3242.02,3527.92,600.06,599.14,12.06,0000 0000 0000 0000 000000
2015-09-03 03:46:19,0.01,0.06,0.00,23.72,28.22,30.83,14.66,48.21,1024.12,2034.07,3427.58,3242.00,3527.43,599.89,598.94,12.11,0000 0000 0000 0000 000000
2015-09-03 03:51:21,0.01,0.06,0.00,23.72,28.22,30.86,14.56,48.28,1023.97,2034.05,3427.07,3242.00,3527.02,600.04,598.79,12.16,0000 0000 0000 0000 000000
2015-09-03 03:56:22,0.00,0.06,0.00,23.74,28.23,30.84,14.68,48.25,1023.96,2034.01,3426.98,3241.92,3526.99,600.26,599.04,12.21,0000 0000 0000 0000 000000
2015-09-03 04:01:23,0.03,0.06,0.00,23.77,28.24,30.84,14.60,48.23,1023.96,2034.01,3426.44,3241.30,3526.73,600.28,599.09,12.26,0000 0000 0000 0000 000000
2015-09-03 04:06:24,0.01,0.06,0.00,23.78,28.25,30.88,14.58,48.18,1023.96,2034.02,3425.99,3241.01,3526.08,599.78,598.59,12.31,0000 0000 0000 0000 000000
2015-09-03 04:11:25,0.01,0.06,0.00,23.82,28.25,30.86,14.54,48.06,1023.95,2034.02,3425.54,3241.00,3526.00,599.73,598.46,12.36,0000 0000 0000 0000 000000
2015-09-03 04:16:27,0.01,0.06,0.00,23.82,28.25,30.88,14.61,48.20,1023.95,2034.02,3425.02,3240.93,3525.94,600.20,598.76,12.41,0000 0000 0000 0000 000000
2015-09-03 04:21:28,0.02,0.06,0.00,23.84,28.25,30.86,14.60,48.25,1023.94,2034.02,3424.94,3240.55,3525.51,599.92,598.61,12.46,0000 0000 0000 0000 000000
2015-09-03 04:26:30,0.02,0.06,0.00,23.86,28.25,30.86,14.61,48.12,1023.94,2034.00,3424.35,3240.05,3525.03,600.21,598.80,12.51,0000 0000 0000 0000 000000
2015-09-03 04:31:31,0.00,0.06,0.00,23.86,28.26,30.89,14.56,48.15,1023.94,2034.00,3424.01,3240.00,3524.99,600.12,598.70,12.56,0000 0000 0000 0000 000000
2015-09-03 04:36:32,0.00,0.06,0.00,23.90,28.27,30.87,14.58,48.29,1023.94,2034.00,3423.96,3239.98,3524.84,600.19,598.66,12.61,0000 0000 0000 0000 000000
2015-09-03 04:41:34,0.02,0.06,0.00,23.90,28.27,30.88,14.53,48.16,1023.94,2034.00,3423.30,3239.95,3524.31,599.55,598.26,12.66,0000 0000 0000 0000 000000
2015-09-03 04:46:35,0.01,0.07,0.00,23.90,28.27,30.90,14.57,48.15,1023.94,2034.00,3423.01,3239.72,3524.01,600.06,598.62,12.71,0000 0000 0000 0000 000000
2015-09-03 04:51:36,0.01,0.07,0.00,23.92,28.27,30.88,14.54,48.20,1023.94,2034.00,3422.92,3239.18,3524.00,600.16,598.58,12.76,0000 0000 0000 0000 000000
2015-09-03 04:56:37,0.01,0.07,0.00,23.94,28.27,30.88,14.61,48.25,1023.94,2034.00,3422.49,3239.02,3523.98,599.98,598.40,12.81,0000 0000 0000 0000 000000
2015-09-03 05:01:39,0.00,0.07,0.00,23.92,28.27,30.90,14.49,48.10,1023.94,2034.00,3422.07,3239.02,3523.81,599.82,598.29,12.87,0000 0000 0000 0000 000000
2015-09-03 05:06:40,0.01,0.07,0.00,23.93,28.29,30.93,14.55,48.08,1023.94,2034.00,3422.00,3239.00,3523.29,600.09,598.52,12.92,0000 0000 0000 0000 000000
2015-09-03 05:11:41,0.00,0.07,0.00,23.94,28.30,30.95,14.54,48.21,1023.95,2033.99,3421.81,3239.00,3523.01,600.22,598.65,12.97,0000 0000 0000 0000 000000
2015-09-03 08:23:49,-3333.30,0.00,0.00,19.23,23.23,20.68,12.79,42.57,1022.83,1850.97,3177.90,2968.97,3235.51,524.83,531.42,0.00,0000 0000 0000 0000 000000
2015-09-03 08:28:50,0.00,0.00,0.00,19.14,22.99,22.00,14.69,47.84,1023.24,2054.84,3523.32,3294.13,3590.48,599.98,607.69,0.06,0000 0000 0000 0000 000000
2015-09-03 08:33:52,0.00,0.00,0.00,19.15,22.79,22.77,14.60,47.68,1023.45,2055.01,3522.91,3294.11,3590.49,600.19,608.16,0.11,0000 0000 0000 0000 000000
2015-09-03 08:38:53,0.01,0.00,0.00,19.22,22.63,23.39,14.66,47.70,1023.46,2055.83,3523.01,3294.96,3591.10,599.63,607.58,0.16,0000 0000 0000 0000 000000
2015-09-03 08:43:55,0.01,0.00,0.00,19.35,22.52,23.94,14.62,47.63,1023.50,2056.27,3523.56,3295.82,3591.91,600.10,607.80,0.21,0000 0000 0000 0000 000000
2015-09-03 08:48:56,0.03,0.00,0.00,19.47,22.45,24.26,14.68,47.88,1023.65,2056.96,3523.98,3296.00,3592.04,600.05,607.43,0.26,0000 0000 0000 0000 000000
2015-09-03 08:53:58,-0.01,0.00,0.00,19.60,22.42,24.46,14.68,47.84,1023.81,2057.02,3523.99,3296.35,3592.25,599.97,607.15,0.31,0000 0000 0000 0000 000000
2015-09-03 08:58:59,0.02,0.00,0.00,19.73,22.43,24.66,14.74,47.91,1023.93,2057.33,3523.99,3296.89,3592.45,600.21,607.32,0.36,0000 0000 0000 0000 000000
2015-09-03 09:04:00,0.04,0.01,0.00,19.85,22.47,24.86,14.65,47.77,1023.94,2057.86,3523.99,3296.91,3592.16,600.24,606.98,0.41,0000 0000 0000 0000 000000
2015-09-03 09:09:02,0.02,0.01,0.00,20.01,22.53,25.08,14.66,47.48,1023.94,2057.93,3523.92,3296.43,3592.01,599.68,606.12,0.46,0000 0000 0000 0000 000000
2015-09-03 09:14:03,0.01,0.01,0.00,20.14,22.61,25.31,14.64,47.71,1023.95,2057.75,3523.17,3296.03,3591.72,600.10,606.47,0.51,0000 0000 0000 0000 000000
2015-09-03 09:19:04,-0.04,0.01,0.00,20.29,22.71,25.51,14.66,47.88,1024.01,2057.24,3522.81,3295.88,3591.02,599.97,605.87,0.56,0000 0000 0000 0000 000000
2015-09-03 09:24:06,0.03,0.01,0.00,20.41,22.82,25.73,14.70,47.84,1024.34,2057.02,3522.02,3295.08,3590.25,600.26,606.15,0.61,0000 0000 0000 0000 000000
2015-09-03 09:29:07,0.05,0.01,0.00,20.49,22.94,25.97,14.67,47.85,1024.43,2057.00,3521.24,3294.33,3589.51,599.76,605.53,0.66,0000 0000 0000 0000 000000
2015-09-03 09:34:09,0.01,0.01,0.00,20.62,23.07,26.17,14.67,47.94,1024.43,2056.84,3520.43,3293.69,3588.65,600.06,605.60,0.71,0000 0000 0000 0000 000000
2015-09-03 09:39:10,-0.02,0.01,0.00,20.73,23.21,26.36,14.70,47.94,1024.43,2056.16,3519.65,3292.91,3587.64,600.37,605.53,0.76,0000 0000 0000 0000 000000
2015-09-03 09:44:11,0.04,0.01,0.00,20.86,23.35,26.60,14.63,47.71,1024.46,2055.95,3518.70,3291.92,3586.50,599.91,604.91,0.81,0000 0000 0000 0000 000000
2015-09-03 09:49:13,-0.02,0.01,0.00,21.01,23.50,26.80,14.69,47.79,1024.56,2055.21,3517.60,3290.90,3585.35,600.24,604.86,0.86,0000 0000 0000 0000 000000
2015-09-03 09:54:14,0.04,0.01,0.00,21.08,23.65,26.99,14.72,47.86,1024.56,2054.98,3516.59,3289.97,3584.27,599.93,604.58,0.91,0000 0000 0000 0000 000000
2015-09-03 09:59:16,-0.02,0.01,0.00,21.12,23.81,27.18,14.63,47.63,1024.65,2054.33,3515.54,3288.94,3583.14,599.83,604.45,0.96,0000 0000 0000 0000 000000
2015-09-03 10:04:17,0.04,0.01,0.00,21.22,23.96,27.40,14.64,47.67,1024.86,2053.93,3514.33,3287.91,3581.94,599.72,604.18,1.01,0000 0000 0000 0000 000000
2015-09-03 10:09:18,-0.01,0.01,0.00,21.31,24.12,27.57,14.66,47.27,1024.91,2053.14,3513.20,3286.81,3580.67,599.28,603.64,1.06,0000 0000 0000 0000 000000
2015-09-03 10:14:19,0.02,0.02,0.00,21.40,24.27,27.75,14.70,46.88,1024.92,2052.77,3512.14,3285.76,3579.49,600.24,604.41,1.11,0000 0000 0000 0000 000000
2015-09-03 10:19:21,0.01,0.02,0.00,21.74,24.43,27.88,14.58,47.32,1024.92,2052.04,3511.04,3284.76,3578.22,600.08,603.57,1.16,0000 0000 0000 0000 000000
2015-09-03 10:24:22,-0.01,0.02,0.00,22.14,24.59,28.03,14.52,47.18,1024.92,2051.38,3509.81,3283.57,3576.76,600.06,602.65,1.21,0000 0000 0000 0000 000000
2015-09-03 10:29:23,0.03,0.02,0.00,22.30,24.76,28.22,14.64,47.30,1024.93,2050.83,3508.56,3282.45,3575.42,599.98,602.35,1.26,0000 0000 0000 0000 000000
2015-09-03 10:34:24,-0.00,0.02,0.00,22.14,24.92,28.37,14.58,47.33,1024.98,2050.03,3507.26,3281.18,3573.92,599.69,602.29,1.31,0000 0000 0000 0000 000000
2015-09-03 10:39:26,-0.01,0.02,0.00,22.06,25.06,28.51,14.60,47.28,1024.96,2049.34,3505.98,3280.01,3572.60,599.80,602.69,1.36,0000 0000 0000 0000 000000
2015-09-03 10:44:27,0.03,0.02,0.00,22.14,25.21,28.65,14.63,47.29,1024.96,2048.94,3504.88,3278.97,3571.38,599.96,602.58,1.41,0000 0000 0000 0000 000000
2015-09-03 10:49:28,-0.02,0.02,0.00,22.46,25.36,28.80,14.51,47.04,1024.95,2048.13,3503.84,3277.99,3570.15,599.95,601.87,1.46,0000 0000 0000 0000 000000
2015-09-03 10:54:29,-0.00,0.02,0.00,22.60,25.51,28.98,14.58,47.22,1024.96,2047.55,3502.72,3276.94,3568.88,600.21,601.89,1.51,0000 0000 0000 0000 000000
2015-09-03 10:59:31,0.04,0.02,0.00,22.47,25.65,29.05,14.60,47.27,1024.94,2047.01,3501.52,3275.87,3567.63,599.76,601.76,1.56,0000 0000 0000 0000 000000
2015-09-03 11:04:32,0.02,0.02,0.00,22.64,25.78,29.16,14.58,47.22,1024.94,2046.79,3500.50,3274.84,3566.48,599.75,601.47,1.61,0000 0000 0000 0000 000000
2015-09-03 11:09:33,-0.00,0.02,0.00,22.68,25.91,29.27,14.62,47.32,1024.94,2046.04,3499.47,3273.88,3565.34,600.04,601.56,1.66,0000 0000 0000 0000 000000
2015-09-03 11:14:34,-0.00,0.02,0.00,22.48,26.03,29.36,14.65,47.32,1024.94,2045.73,3498.44,3273.03,3564.22,600.16,602.06,1.71,0000 0000 0000 0000 000000
2015-09-03 11:19:36,0.01,0.02,0.00,22.58,26.14,29.43,14.66,47.29,1024.93,2045.04,3497.51,3272.12,3563.23,600.05,601.86,1.76,0000 0000 0000 0000 000000
2015-09-03 11:24:37,0.01,0.02,0.00,22.78,26.25,29.59,14.72,47.37,1024.93,2044.72,3496.46,3271.21,3562.15,600.18,601.52,1.81,0000 0000 0000 0000 000000
2015-09-03 11:29:38,0.00,0.02,0.00,22.70,26.35,29.66,14.56,47.21,1024.93,2044.03,3495.64,3270.47,3561.18,599.88,601.39,1.86,0000 0000 0000 0000 000000
2015-09-03 11:34:40,0.03,0.02,0.00,22.56,26.45,29.71,14.62,47.10,1024.92,2043.92,3494.76,3269.70,3560.19,599.87,601.72,1.91,0000 0000 0000 0000 000000
2015-09-03 11:39:41,-0.04,0.02,0.00,22.55,26.54,29.75,14.61,47.24,1024.92,2043.20,3493.98,3269.01,3559.39,600.17,602.08,1.96,0000 0000 0000 0000 000000
2015-09-03 11:44:42,0.04,0.02,0.00,22.77,26.62,29.76,14.64,47.26,1024.92,2042.99,3493.16,3268.28,3558.65,599.82,601.18,2.01,0000 0000 0000 0000 000000
2015-09-03 11:49:44,-0.01,0.02,0.00,22.84,26.70,29.80,14.59,47.13,1024.93,2042.59,3492.47,3267.71,3557.80,599.74,601.04,2.06,0000 0000 0000 0000 000000
2015-09-03 11:54:45,-0.00,0.02,0.00,22.67,26.78,29.88,14.60,47.02,1024.95,2042.04,3491.69,3266.98,3556.99,600.33,601.81,2.11,0000 0000 0000 0000 000000
2015-09-03 11:59:46,0.03,0.02,0.00,22.73,26.85,29.92,14.69,47.37,1024.95,2041.98,3490.98,3266.22,3556.15,600.23,601.72,2.16,0000 0000 0000 0000 000000
2015-09-03 12:04:48,-0.03,0.02,0.00,22.92,26.93,29.90,14.64,47.02,1024.96,2041.53,3490.24,3265.90,3555.53,600.06,601.16,2.21,0000 0000 0000 0000 000000
2015-09-03 12:09:49,0.01,0.02,0.00,22.77,26.99,29.99,14.70,47.27,1025.00,2041.03,3489.59,3265.10,3554.84,600.16,601.50,2.27,0000 0000 0000 0000 000000
2015-09-03 12:14:50,0.02,0.02,0.00,22.60,27.05,30.06,14.54,47.16,1025.11,2040.98,3488.98,3264.71,3554.05,599.58,601.41,2.32,0000 0000 0000 0000 000000
2015-09-03 12:19:51,-0.01,0.03,0.00,22.53,27.10,30.09,14.82,47.42,1025.04,2040.70,3488.29,3264.04,3553.51,600.28,602.22,2.37,0000 0000 0000 0000 000000
2015-09-03 12:24:53,-0.03,0.02,0.00,22.75,27.16,30.06,14.64,47.31,1024.97,2040.12,3487.95,3263.86,3553.00,599.93,601.47,2.42,0000 0000 0000 0000 000000
2015-09-03 12:29:54,0.04,0.02,0.00,22.89,27.21,30.07,14.64,47.19,1024.95,2040.01,3487.13,3263.09,3552.33,600.03,601.14,2.47,0000 0000 0000 0000 000000
2015-09-03 12:34:55,0.01,0.03,0.00,22.79,27.26,30.19,14.66,47.17,1024.95,2040.00,3486.47,3262.98,3551.98,599.85,601.24,2.52,0000 0000 0000 0000 000000
2015-09-03 12:39:56,0.03,0.03,0.00,22.62,27.31,30.25,14.66,47.25,1024.94,2039.96,3486.01,3262.39,3551.27,599.74,601.43,2.57,0000 0000 0000 0000 000000
2015-09-03 12:44:57,-0.04,0.03,0.00,22.61,27.35,30.27,14.60,47.20,1024.94,2039.46,3485.41,3262.01,3550.78,599.95,601.66,2.62,0000 0000 0000 0000 000000
2015-09-03 12:49:58,0.00,0.03,0.00,22.84,27.39,30.23,14.59,47.01,1024.94,2039.03,3484.99,3261.70,3550.06,599.87,601.11,2.67,0000 0000 0000 0000 000000
2015-09-03 12:55:00,0.02,0.03,0.00,22.94,27.43,30.30,14.66,47.22,1024.93,2039.01,3484.61,3261.08,3549.86,600.24,601.26,2.72,0000 0000 0000 0000 000000
2015-09-03 13:00:01,0.01,0.03,0.00,22.81,27.47,30.35,14.64,47.08,1024.94,2039.00,3484.02,3260.99,3549.10,599.93,601.22,2.77,0000 0000 0000 0000 000000
2015-09-03 13:05:02,0.02,0.03,0.00,22.91,27.51,30.33,14.59,47.01,1024.96,2038.96,3483.69,3260.63,3548.86,600.06,601.16,2.82,0000 0000 0000 0000 000000
2015-09-03 13:10:04,0.00,0.03,0.00,22.99,27.55,30.36,14.56,47.02,1024.96,2038.80,3483.05,3260.04,3548.15,600.09,601.02,2.87,0000 0000 0000 0000 000000
2015-09-03 13:15:05,-0.03,0.03,0.00,22.86,27.57,30.39,14.58,47.08,1024.94,2038.37,3482.97,3260.00,3548.00,599.89,601.10,2.92,0000 0000 0000 0000 000000
2015-09-03 13:20:06,0.00,0.03,0.00,23.01,27.60,30.38,14.57,47.10,1024.93,2038.05,3482.40,3259.93,3547.68,599.93,600.78,2.97,0000 0000 0000 0000 000000
2015-09-03 13:25:08,0.02,0.03,0.00,22.94,27.62,30.45,14.65,47.12,1024.92,2038.00,3482.00,3259.23,3547.03,599.96,600.99,3.02,0000 0000 0000 0000 000000
2015-09-03 13:30:09,0.00,0.03,0.00,22.71,27.65,30.52,14.80,47.27,1024.92,2038.00,3481.78,3259.01,3546.98,600.31,601.81,3.07,0000 0000 0000 0000 000000
2015-09-03 13:35:10,0.01,0.03,0.00,22.61,27.66,30.55,14.67,47.27,1024.92,2038.00,3481.15,3258.99,3546.61,600.09,601.81,3.12,0000 0000 0000 0000 000000
2015-09-03 13:40:11,0.00,0.03,0.00,22.69,27.67,30.49,14.72,47.08,1024.92,2037.99,3481.00,3258.96,3546.06,600.38,601.77,3.17,0000 0000 0000 0000 000000
2015-09-03 13:45:13,0.01,0.03,0.00,22.90,27.70,30.49,14.60,47.09,1024.92,2037.98,3480.96,3258.70,3545.99,600.30,601.28,3.22,0000 0000 0000 0000 000000
2015-09-03 13:50:14,0.01,0.03,0.00,22.89,27.71,30.52,14.65,47.08,1024.92,2037.94,3480.69,3258.28,3545.92,599.86,601.10,3.27,0000 0000 0000 0000 000000
2015-09-03 13:55:15,-0.01,0.03,0.00,22.75,27.73,30.54,14.69,47.18,1024.92,2037.70,3480.06,3258.01,3545.21,599.92,601.29,3.32,0000 0000 0000 0000 000000
2015-09-03 14:00:16,-0.02,0.03,0.00,22.93,27.75,30.52,14.67,47.10,1024.92,2037.41,3480.00,3258.00,3545.01,599.95,600.97,3.37,0000 0000 0000 0000 000000
2015-09-03 14:05:18,-0.01,0.03,0.00,22.91,27.77,30.57,14.70,47.15,1024.92,2037.14,3479.82,3257.97,3544.97,600.02,601.10,3.42,0000 0000 0000 0000 000000
2015-09-03 14:10:19,0.01,0.03,0.00,22.69,27.77,30.64,14.72,47.26,1024.91,2037.03,3479.12,3257.81,3544.71,600.01,601.61,3.47,0000 0000 0000 0000 000000
2015-09-03 14:15:21,0.02,0.03,0.00,22.59,27.78,30.63,14.65,47.08,1024.86,2037.03,3479.00,3257.33,3544.10,600.00,601.69,3.52,0000 0000 0000 0000 000000
2015-09-03 14:20:22,0.00,0.03,0.00,22.80,27.80,30.57,14.71,47.17,1024.76,2037.01,3478.99,3257.14,3544.01,600.10,601.40,3.57,0000 0000 0000 0000 000000
2015-09-03 14:25:23,0.00,0.03,0.00,22.94,27.81,30.59,14.66,46.84,1024.78,2037.00,3478.74,3257.01,3544.00,599.80,600.87,3.62,0000 0000 0000 0000 000000
2015-09-03 14:30:24,0.00,0.03,0.00,22.91,27.82,30.59,14.59,46.98,1024.80,2037.00,3478.19,3257.00,3543.97,599.90,600.98,3.67,0000 0000 0000 0000 000000
2015-09-03 14:35:26,0.01,0.03,0.00,23.01,27.84,30.60,14.69,47.01,1024.76,2037.00,3478.04,3257.00,3543.73,599.85,600.70,3.72,0000 0000 0000 0000 000000
2015-09-03 14:40:27,0.00,0.03,0.00,22.88,27.85,30.63,14.67,46.95,1024.62,2037.00,3478.00,3256.99,3543.22,599.71,600.67,3.77,0000 0000 0000 0000 000000
2015-09-03 14:45:28,0.00,0.03,0.00,22.89,27.85,30.61,14.62,47.10,1024.48,2037.00,3477.98,3256.93,3543.02,600.32,601.10,3.82,0000 0000 0000 0000 000000
2015-09-03 14:50:30,0.01,0.03,0.00,23.00,27.87,30.62,14.66,47.13,1024.45,2037.00,3477.86,3256.77,3543.00,600.14,600.77,3.87,0000 0000 0000 0000 000000
2015-09-03 14:55:31,0.01,0.03,0.00,22.84,27.87,30.63,14.57,47.03,1024.44,2037.00,3477.35,3256.49,3542.99,599.79,600.67,3.92,0000 0000 0000 0000 000000
2015-09-03 15:00:32,0.01,0.03,0.00,22.93,27.87,30.61,14.67,46.99,1024.43,2037.00,3477.03,3256.13,3542.96,600.16,600.98,3.97,0000 0000 0000 0000 000000
2015-09-03 15:05:33,0.00,0.03,0.00,22.96,27.90,30.66,14.63,46.91,1024.43,2036.98,3477.00,3256.04,3542.56,600.05,600.78,4.02,0000 0000 0000 0000 000000
2015-09-03 15:10:34,0.00,0.03,0.00,22.74,27.90,30.74,14.74,47.14,1024.43,2036.99,3477.00,3256.03,3542.11,600.29,601.35,4.07,0000 0000 0000 0000 000000
2015-09-03 15:15:36,0.00,0.03,0.00,22.67,27.90,30.71,14.63,47.07,1024.43,2036.98,3476.98,3256.00,3542.02,600.01,601.28,4.12,0000 0000 0000 0000 000000
2015-09-03 15:20:37,0.00,0.03,0.00,22.86,27.90,30.65,14.61,46.99,1024.43,2036.98,3476.91,3256.01,3542.01,599.56,600.45,4.17,0000 0000 0000 0000 000000
2015-09-03 15:25:38,0.00,0.04,0.00,22.97,27.90,30.67,14.60,46.93,1024.43,2036.98,3476.55,3256.00,3542.00,599.78,600.50,4.22,0000 0000 0000 0000 000000
2015-09-03 15:30:40,0.00,0.04,0.00,22.86,27.92,30.72,14.70,47.01,1024.43,2036.96,3476.16,3256.00,3541.99,600.11,600.76,4.27,0000 0000 0000 0000 000000
2015-09-03 15:35:41,-0.00,0.04,0.00,22.68,27.92,30.74,14.70,47.17,1024.43,2036.95,3476.01,3256.00,3541.96,600.15,601.48,4.32,0000 0000 0000 0000 000000
2015-09-03 15:40:42,0.00,0.04,0.00,22.79,27.92,30.68,14.63,46.93,1024.43,2036.96,3476.00,3255.99,3541.84,599.86,600.85,4.37,0000 0000 0000 0000 000000
2015-09-03 15:45:43,0.00,0.04,0.00,22.95,27.92,30.69,14.63,46.90,1024.43,2036.97,3476.00,3255.98,3541.46,600.01,600.79,4.42,0000 0000 0000 0000 000000
2015-09-03 15:50:44,0.00,0.04,0.00,22.88,27.94,30.71,14.65,46.86,1024.43,2036.95,3475.97,3255.91,3541.08,600.07,600.82,4.47,0000 0000 0000 0000 000000
2015-09-03 15:55:46,0.01,0.04,0.00,22.99,27.95,30.68,14.63,46.90,1024.43,2036.88,3475.69,3255.57,3541.00,599.98,600.50,4.52,0000 0000 0000 0000 000000
2015-09-03 16:00:47,0.00,0.04,0.00,22.89,27.95,30.75,14.64,46.98,1024.43,2036.80,3475.18,3255.30,3541.00,599.93,600.86,4.57,0000 0000 0000 0000 000000